Regional Weather Roundup
Issued by NWS

Home | Current Version | Previous Version | Graphics & Text | Print | Product List | Glossary On
Versions: 1 2 3 4 5 6 7 8 9 10 11 12 13 14 15 16 17 18 19 20 21 22 23 24 25 26 27 28 29 30 31 32 33 34 35 36 37 38 39 40 41 42 43 44 45 46 47 48 49 50
000
ASUS43 KLOT 310900
RWRIL

ILLINOIS REGIONAL WEATHER ROUNDUP
NATIONAL WEATHER SERVICE CHICAGO/ROMEOVILLE IL
400 AM CDT MON AUG 31 2015

NOTE: "FAIR" INDICATES FEW OR NO CLOUDS BELOW 12,000 FEET WITH NO
SIGNIFICANT WEATHER AND/OR OBSTRUCTIONS TO VISIBILITY.

* THESE STATIONS ARE NOT UNDER NWS QUALITY CONTROL. THEY ALSO MAY NOT
  REPORT WEATHER SUCH AS PRECIPITATION OR FOG.

ILZ001-002-007-009-015-016-024-311000-
NORTHWEST ILLINOIS

CITY           SKY/WX    TMP DP  RH WIND       PRES   REMARKS
MOLINE         CLEAR     62  59  90 E3        30.02S
$$

ILZ003-004-008-010-011-017-018-311000-
NORTH CENTRAL ILLINOIS

CITY           SKY/WX    TMP DP  RH WIND       PRES   REMARKS
ROCKFORD       NOT AVBL
$$

ILZ005-006-012>014-019>023-311000-
NORTHEAST ILLINOIS

CITY           SKY/WX    TMP DP  RH WIND       PRES   REMARKS
CHICAGO-OHARE  PTCLDY    62  62 100 CALM      30.03S FOG
CHICAGO-MIDWAY PTCLDY    67  63  87 CALM      30.03S FOG
AURORA         FOG       60  59  96 CALM      30.05R VSB<1/4
WAUKEGAN       FOG       62  62 100 CALM      30.03S VSB 1/4
DUPAGE AIRPORT FOG       59  58  96 CALM      30.04R VSB 1/4
WHEELING       CLOUDY    58  57  97 CALM      30.05R FOG
NORTHERLY ISL    N/A     66  64  93 CALM        N/A
$$

LMZ740>746-311000-
SOUTHERN LAKE MICHIGAN

STATION/POSITION SKY/WX   TEMP    WIND        PRES    VSBY  WAVE
                          AIR SEA DIR/SP/G                  HT/PER
                          (F)     (DEG/KT/KT) (MB)    (MI)  (FT/S)
SOUTHERN BUOY              68 68  190/  6/  6 1016.7R         0
WILMETTE HARBOR            62 60  330/  4/  6   N/A           0
HARRISON CRIB              68     180/  3/  3   N/A
BURNHAM HARBOR             65        CALM       N/A
BURNS HARBOR               68     170/  3/  5 1017.3F
MICHIGAN CITY              66     120/  6/  7   N/A
MICHIGAN CITY 6N           68 71  170/  4/  6   N/A           0
ST. JOSEPH                 68 71  160/  4/  6   N/A           1
$$

ILZ025>027-034>036-040-047-049-050-058-095>099-311000-
WEST-CENTRAL ILLINOIS

CITY           SKY/WX    TMP DP  RH WIND       PRES   REMARKS
$$

ILZ028>032-037-038-041>044-048-051>054-059>061-311000-
CENTRAL ILLINOIS

CITY           SKY/WX    TMP DP  RH WIND       PRES   REMARKS
BLOOMINGTON    CLEAR     66  66 100 CALM      30.05S FOG
PEORIA         NOT AVBL
SPRINGFIELD    CLEAR     71  69  93 CALM      30.02R
TAYLORVILLE    NOT AVBL
$$

ILZ033-039-045-046-055>057-062-063-311000-
EAST-CENTRAL ILLINOIS

CITY           SKY/WX    TMP DP  RH WIND       PRES   REMARKS
CHAMPAIGN      PTCLDY    66  64  93 CALM      30.04S FOG
MATTOON        PTCLDY    70  67  90 S7        30.03F FOG
$$

ILZ079-100>102-311000-
SOUTHWEST ILLINOIS

CITY           SKY/WX    TMP DP  RH WIND       PRES   REMARKS
CAHOKIA*       CLEAR     72  69  90 CALM      30.01S
$$

ILZ064>066-069>071-074>076-080>082-084>086-088>090-092>094-311000-
SOUTH-CENTRAL ILLINOIS

CITY           SKY/WX    TMP DP  RH WIND       PRES   REMARKS
CARBONDALE     MOCLDY    69  67  93 CALM      30.04R
$$

ILZ067-068-072-073-078-083-087-091-311000-
SOUTHEAST ILLINOIS

CITY           SKY/WX    TMP DP  RH WIND       PRES   REMARKS
LAWRENCEVILLE  CLEAR     66  64  93 S5        30.05S FOG
$$

ABBREVIATIONS USED IN REMARKS
   TC - TEMPERATURE IN CELSIUS
  WCI - WIND CHILL INDEX
   HX - HEAT INDEX
  VSB - VISIBILITY
$$




USA.gov is the U.S. government's official web portal to all federal, state and local government web resources and services.